Tracking 29892 objects as of 21-Nov-2024
HD Live streaming from Space Station
objects crossing your sky now

CZ-6A DEB

Track CZ-6A DEB now!
10-day predictions


NORAD ID: 54266
Int'l Code: 2022-151H
Perigee: 832.8 km
Apogee: 1,453.0 km
Inclination: 99.0 °
Period: 108.0 minutes
Semi major axis: 7513 km
RCS: Unknown
Launch date: November 11, 2022
Source: People's Republic of China (PRC)
Launch site: Taiyaun Space Center, China (TSC)

Note: This is SATELLITE DEBRIS
Your satellite tracking list
Your tracking list is empty




NASA's NSSDC Master Catalog

Two Line Element Set (TLE):
1 54266U 22151H   24325.78553585  .00000423  00000-0  58215-3 0  9999
2 54266  99.0312 252.0117 0412683  38.3756 324.5980 13.32922289 98507
Source of the keplerian elements: AFSPC